Weather History for Hearne, TX

Change the Weather History Date:

Saturday, September 21, 2013

  Actual Average (KCLL) Record (KCLL)
Temperature  
Mean Temperature 74 °F 78 °F  
Max Temperature 84 °F 89 °F 102 °F (2005)
Min Temperature 66 °F 68 °F 43 °F (1938)
Degree Days  
Heating Degree Days 0 0  
Month to date heating degree days 0  
Since 1 July heating degree days 0  
Cooling Degree Days 10 13  
Month to date cooling degree days 342  
Year to date cooling degree days 2688  
Growing Degree Days 24 (Base 50)    
Moisture  
Dew Point 62 °F    
Average Humidity 69    
Maximum Humidity 92    
Minimum Humidity 39    
Precipitation  
Precipitation 0.00 in 0.10 in 1.28 in (1967)
Month to date precipitation 2.25  
Year to date precipitation 27.77  
Sea Level Pressure  
Sea Level Pressure 29.87 in    
Wind  
Wind Speed 10 mph (North)    
Max Wind Speed 16 mph    
Max Gust Speed 23 mph    
Visibility 10 miles    
Events      
T = Trace of Precipitation, MM = Missing Value Source: NWS Daily Summary

Daily Weather History Graph

Daily Weather History Graph

Search for Another Location

Airport:

Trip Planner

Search our weather history database for the weather conditions in past years. The results will help you decide how hot, cold, wet, or windy it might be!

Date:

Astronomy

Sep. 21, 2013 Rise Set
Actual Time 7:14 AM CDT 7:24 PM CDT
Civil Twilight 6:50 AM CDT 7:48 PM CDT
Nautical Twilight 6:22 AM CDT 8:16 PM CDT
Astronomical Twilight 5:53 AM CDT 8:44 PM CDT
Moon 8:49 PM CDT (9/21) 9:21 AM CDT (9/21)
Length of Visible Light 12h 57m
Length of Day
12h 09m
Waning Gibbous, 94% of the Moon is Illuminated
Sep 21
Waning Gibbous
Sep 26
Last Quarter
Oct 4
New
Oct 11
First Quarter
Oct 18
Full

Hourly Weather History & Observations

Time (CDT) Temp. Heat Index Dew Point Humidity Pressure Visibility Wind Dir Wind Speed Gust Speed Precip Events Conditions
12:15 AM 71.2 °F - 68.5 °F 91% 29.85 in 10.0 mi North 11.5 mph - N/A   Mostly Cloudy
12:35 AM 71.6 °F - 68.7 °F 91% 29.85 in 10.0 mi NNW 9.2 mph - N/A   Scattered Clouds
12:55 AM 71.6 °F - 68.9 °F 91% 29.85 in 10.0 mi NNW 10.4 mph - N/A   Mostly Cloudy
1:15 AM 71.8 °F - 69.1 °F 91% 29.85 in 10.0 mi NW 6.9 mph - N/A   Overcast
1:35 AM 71.6 °F - 68.5 °F 90% 29.85 in 7.0 mi NNW 12.7 mph 20.7 mph N/A   Overcast
1:55 AM 70.9 °F - 68.5 °F 92% 29.86 in 7.0 mi NNW 11.5 mph - N/A   Overcast
2:15 AM 70.7 °F - 68.4 °F 92% 29.85 in 7.0 mi North 10.4 mph 20.7 mph N/A   Overcast
2:35 AM 70.9 °F - 68.2 °F 91% 29.85 in 10.0 mi NNW 11.5 mph - N/A   Overcast
2:55 AM 71.1 °F - 68.4 °F 91% 29.84 in 10.0 mi NNW 12.7 mph 16.1 mph N/A   Overcast
3:15 AM 71.1 °F - 68.0 °F 90% 29.84 in 10.0 mi NNW 12.7 mph 20.7 mph N/A   Overcast
3:35 AM 71.2 °F - 68.0 °F 89% 29.85 in 10.0 mi NNW 13.8 mph 18.4 mph N/A   Overcast
3:55 AM 71.1 °F - 68.0 °F 90% 29.85 in 10.0 mi NNW 11.5 mph - N/A   Overcast
4:15 AM 71.1 °F - 67.6 °F 89% 29.85 in 10.0 mi NNW 10.4 mph - N/A   Overcast
4:35 AM 71.2 °F - 68.0 °F 89% 29.85 in 10.0 mi NNW 9.2 mph - N/A   Overcast
4:55 AM 71.2 °F - 67.6 °F 88% 29.86 in 10.0 mi NNW 9.2 mph - N/A   Overcast
5:15 AM 70.9 °F - 67.3 °F 88% 29.86 in 10.0 mi NNW 10.4 mph - N/A   Overcast
5:35 AM 70.3 °F - 66.7 °F 88% 29.86 in 10.0 mi NNW 13.8 mph 19.6 mph N/A   Overcast
5:55 AM 70.0 °F - 66.2 °F 88% 29.86 in 10.0 mi NNW 15.0 mph 19.6 mph N/A   Overcast
6:15 AM 69.8 °F - 65.5 °F 86% 29.86 in 10.0 mi NNW 12.7 mph 20.7 mph N/A   Overcast
6:35 AM 69.3 °F - 65.3 °F 87% 29.86 in 10.0 mi NNW 13.8 mph - N/A   Overcast
6:55 AM 68.9 °F - 64.8 °F 87% 29.87 in 10.0 mi NNW 12.7 mph - N/A   Overcast
7:15 AM 68.4 °F - 64.2 °F 87% 29.88 in 10.0 mi NNW 12.7 mph - N/A   Overcast
7:35 AM 68.2 °F - 63.5 °F 85% 29.88 in 10.0 mi NNW 12.7 mph 18.4 mph N/A   Overcast
7:55 AM 67.8 °F - 63.0 °F 84% 29.88 in 10.0 mi NNW 12.7 mph - N/A   Mostly Cloudy
8:15 AM 67.1 °F - 61.9 °F 83% 29.88 in 10.0 mi NNW 13.8 mph - N/A   Scattered Clouds
8:35 AM 66.9 °F - 61.7 °F 83% 29.90 in 10.0 mi NNW 12.7 mph - N/A   Scattered Clouds
8:55 AM 68.7 °F - 61.9 °F 79% 29.91 in 10.0 mi North 10.4 mph - N/A   Mostly Cloudy
9:15 AM 68.9 °F - 61.7 °F 78% 29.91 in 10.0 mi NNW 11.5 mph - N/A   Mostly Cloudy
9:35 AM 69.4 °F - 62.1 °F 77% 29.91 in 10.0 mi NNW 12.7 mph 23.0 mph N/A   Overcast
9:55 AM 69.6 °F - 62.1 °F 77% 29.92 in 10.0 mi North 13.8 mph 21.9 mph N/A   Overcast
10:15 AM 70.3 °F - 62.2 °F 75% 29.93 in 10.0 mi North 13.8 mph 19.6 mph N/A   Overcast
10:35 AM 70.9 °F - 62.4 °F 75% 29.93 in 10.0 mi North 12.7 mph 20.7 mph N/A   Overcast
10:55 AM 71.8 °F - 63.1 °F 74% 29.93 in 10.0 mi North 16.1 mph 23.0 mph N/A   Overcast
11:15 AM 71.6 °F - 63.3 °F 75% 29.93 in 10.0 mi North 11.5 mph 17.3 mph N/A   Overcast
11:35 AM 73.2 °F - 63.5 °F 71% 29.93 in 10.0 mi North 10.4 mph - N/A   Overcast
11:55 AM 74.5 °F - 63.1 °F 68% 29.93 in 10.0 mi North 12.7 mph 19.6 mph N/A   Overcast
12:15 PM 75.0 °F - 63.1 °F 66% 29.92 in 10.0 mi North 13.8 mph 18.4 mph N/A   Overcast
12:35 PM 76.6 °F - 63.1 °F 63% 29.92 in 10.0 mi North 13.8 mph 18.4 mph N/A   Overcast
12:55 PM 78.1 °F - 63.1 °F 60% 29.91 in 10.0 mi North 11.5 mph 17.3 mph N/A   Mostly Cloudy
1:15 PM 78.3 °F - 62.6 °F 58% 29.90 in 10.0 mi North 10.4 mph 19.6 mph N/A   Mostly Cloudy
1:35 PM 78.6 °F - 61.9 °F 56% 29.89 in 10.0 mi North 11.5 mph - N/A   Mostly Cloudy
1:55 PM 80.2 °F 81.3 °F 61.9 °F 53% 29.88 in 10.0 mi North 10.4 mph 17.3 mph N/A   Mostly Cloudy
2:15 PM 80.8 °F 81.6 °F 61.3 °F 51% 29.88 in 10.0 mi North 10.4 mph 18.4 mph N/A   Mostly Cloudy
2:35 PM 80.6 °F 81.6 °F 61.5 °F 52% 29.87 in 10.0 mi North 13.8 mph - N/A   Mostly Cloudy
2:55 PM 82.2 °F 82.7 °F 60.8 °F 48% 29.86 in 10.0 mi North 6.9 mph - N/A   Mostly Cloudy
3:15 PM 82.9 °F 83.2 °F 60.1 °F 46% 29.85 in 10.0 mi North 9.2 mph 16.1 mph N/A   Mostly Cloudy
3:35 PM 83.1 °F 83.0 °F 59.0 °F 44% 29.84 in 10.0 mi North 8.1 mph 18.4 mph N/A   Scattered Clouds
3:55 PM 83.7 °F 83.4 °F 59.0 °F 43% 29.83 in 10.0 mi NNE 10.4 mph - N/A   Scattered Clouds
4:15 PM 83.7 °F 83.3 °F 58.5 °F 42% 29.83 in 10.0 mi North 5.8 mph 10.4 mph N/A   Scattered Clouds
4:35 PM 83.3 °F 82.9 °F 58.3 °F 42% 29.83 in 10.0 mi North 8.1 mph - N/A   Clear
4:55 PM 83.8 °F 83.1 °F 57.2 °F 40% 29.83 in 10.0 mi North 9.2 mph 20.7 mph N/A   Scattered Clouds
5:15 PM 83.5 °F 82.9 °F 57.4 °F 41% 29.83 in 10.0 mi North 11.5 mph 16.1 mph N/A   Scattered Clouds
5:35 PM 83.8 °F 83.1 °F 57.2 °F 40% 29.82 in 10.0 mi North 9.2 mph - N/A   Clear
5:55 PM 82.9 °F 82.3 °F 56.5 °F 40% 29.83 in 10.0 mi North 6.9 mph - N/A   Clear
6:15 PM 82.6 °F 81.8 °F 55.4 °F 39% 29.83 in 10.0 mi North 9.2 mph - N/A   Clear
6:35 PM 81.5 °F 81.0 °F 55.0 °F 40% 29.83 in 10.0 mi North 10.4 mph - N/A   Clear
6:55 PM 80.6 °F 80.5 °F 55.4 °F 42% 29.83 in 10.0 mi NNW 8.1 mph - N/A   Clear
7:15 PM 78.1 °F - 56.5 °F 47% 29.83 in 10.0 mi NNW 6.9 mph - N/A   Clear
7:35 PM 74.5 °F - 57.9 °F 56% 29.83 in 10.0 mi NNW 6.9 mph - N/A   Clear
8:15 PM 72.3 °F - 57.6 °F 60% 29.84 in 10.0 mi North 3.5 mph - N/A   Clear
8:35 PM 72.1 °F - 57.2 °F 59% 29.85 in 10.0 mi North 3.5 mph - N/A   Clear
8:55 PM 71.1 °F - 56.7 °F 60% 29.85 in 10.0 mi North 3.5 mph - N/A   Clear
9:15 PM 70.5 °F - 56.3 °F 61% 29.85 in 10.0 mi North 4.6 mph - N/A   Clear
9:35 PM 70.2 °F - 56.3 °F 61% 29.86 in 10.0 mi North 3.5 mph - N/A   Clear
9:55 PM 70.9 °F - 55.2 °F 58% 29.86 in 10.0 mi North 4.6 mph - N/A   Clear
10:15 PM 69.6 °F - 55.9 °F 62% 29.87 in 10.0 mi North 3.5 mph - N/A   Clear
10:35 PM 68.5 °F - 55.8 °F 64% 29.87 in 10.0 mi North 4.6 mph - N/A   Clear
10:55 PM 67.5 °F - 55.8 °F 66% 29.87 in 10.0 mi North 3.5 mph - N/A   Clear
11:15 PM 66.9 °F - 55.8 °F 67% 29.87 in 10.0 mi Calm Calm - N/A   Clear
11:35 PM 67.5 °F - 55.4 °F 65% 29.88 in 10.0 mi North 3.5 mph - N/A   Clear
11:55 PM 66.4 °F - 55.4 °F 68% 29.87 in 10.0 mi North 4.6 mph - N/A   Clear